Location: C.E.K. Mees Observatory
(42.7003°N, 77.4088°W)
Time: 18:27:17
(UTC-04:00)

Envisat - Pass Details

Date: 09 October 2017
Orbit: 764 x 766 km, 98.2° (Epoch: 17 October)

Event Time Altitude Azimuth Distance (km) Brightness Sun altitude
Exits shadow 20:04:27 28° 88° (E) 1,396 3.8 -16.9°
Maximum altitude 20:05:24 31° 67° (ENE) 1,335 3.8 -17.1°
Drops below altitude 10° 20:09:48 10° 7° (N) 2,310 5.5 -17.9°
Sets 20:12:20 0° 357° (N) 3,240 6.4 -18.4°
